Location: Abraham Lincoln Continuation High School
(33.9711°N, 117.3662°W)
Time: 04:06:28
(UTC+00:00)

Helios 1A Rocket - Pass Details

Date: 21 September 2020
Orbit: 563 x 586 km, 98.3° (Epoch: 25 October)

Event Time Altitude Azimuth Distance (km) Brightness Sun altitude
Rises 02:10:51 0° 167° (SSE) 2,769 6.2 -5.5°
Reaches altitude 10° 02:12:58 10° 168° (SSE) 1,879 5.4 -6.0°
Maximum altitude 02:17:03 87° 252° (WSW) 585 3.0 -6.8°
Drops below altitude 10° 02:21:11 10° 347° (NNW) 1,904 5.8 -7.7°
Sets 02:23:21 0° 347° (NNW) 2,811 6.7 -8.1°
